Zurück zum Katalog

RADIATION SAT

5E 1

AktivWissenschaftPO
NORAD 671·PAYLOAD·🇺🇸 United States

Gestartet Sep 28, 1963 von Vandenberg Space Force Base

Loading…

Nächste Überflüge (nächste 24 Stunden)

TLE

AktuellSource: Space-Track

Epoche: Sep 14, 2026, 11:22 UTC

1 00671U 63038C   26257.47408067  .00000063  00000-0  90002-4 0  9996
2 00671  89.9676 332.7174 0042239  94.7572 265.8402 13.45233718 87056

Verfolge RADIATION SAT in Echtzeit mit AllMySat

Download on the App Store